SZ-21 MODULE

Last updated on Sun Apr 12 2026 00:02:13 GMT+0000 (Coordinated Universal Time)

1 66515U 25246C 26101.13588019 .00032766 00000+0 25255-3 0 9992 2 66515 41.4754 3.2372 0004196 256.1188 103.9188 15.71251716 23177
UTC large
Height (km)
Speed (km/s)
/
Latitude / Longitude
Inclination (degrees)
Orbital Period (minutes)
Azimuth
Elevation
Range (km)
Doppler Factor

Next 0 passes for location: London (51.5072 / 0.1276)

Sorry there are no passes over London.
SZ-21 MODULE